Location: Epalinges
(46.5518°N, 6.6683°E)
Time: 20:42:05
(UTC+00:00)

USA 215 - Pass Details

Date: 20 June 2021
Orbit: 1100 x 1107 km, 123.0° (Epoch: 22 June)

Event Time Altitude Azimuth Distance (km) Brightness Sun altitude
Rises 00:36:54 0° 57° (ENE) 3,923 6.9 -18.6°
Reaches altitude 10° 00:39:29 10° 51° (NE) 2,964 6.3 -18.5°
Maximum altitude 00:45:36 44° 343° (NNW) 1,484 4.3 -18.2°
Drops below altitude 10° 00:51:41 10° 274° (W) 2,958 5.4 -17.9°
Sets 00:54:17 0° 268° (W) 3,915 5.9 -17.7°
